R/V Knorr Calliope CSV data file  (Time stamps are GMT)
Date, Time_GMT, Depth12, Depth35, Air_Temp, WXT5_Ta, WXT5_Pa, dec_lat, dec_lon, GPS_COG, GPS_SOG, Gyro, IMET_BPR, IMET_SWR, WXT5_Ri, WXT5_Rc, HRH, WXT5_Ua, WXT5_Dm, WXT5_Sm, SBE45C, SBE45S, SBE45T, Salinity, SSCND, Fluorometer, SSTMP, SSV, Wnd_Dir, TWD5, Wnd_Spd, TWS5, HdChkSum=3E
2009/04/15, 00:00:22, , , 27.26, 27.10, 1007.5, 9.5829180, -122.3159370, 286.40, 12.47, 288.10, 1007.22, 487.00, 0.0, 196.35, 69.05, 66.1, 72, 6.9, 57.42240, 34.21250, 30.2211, 34.2125, 57.4224, 80.20, 28.3752, 1541.31, 47.30, 46.1, 7.75, 7.8, 3E
2009/04/15, 00:01:23, , , 27.20, 27.00, 1007.5, 9.5840150, -122.3191630, 290.10, 12.30, 287.90, 1007.27, 482.90, 0.0, 196.35, 68.25, 65.3, 74, 6.9, 57.42730, 34.21200, 30.2266, 34.2120, 57.4273, 80.50, 28.3730, 1541.30, 49.60, 49.4, 7.50, 7.1, 3E
2009/04/15, 00:02:22, , , 27.23, 27.00, 1007.5, 9.5851270, -122.3224850, 288.90, 12.81, 287.90, 1007.21, 474.90, 0.0, 196.35, 68.64, 65.9, 75, 7.4, 57.43440, 34.21300, 30.2318, 34.2130, 57.4344, 80.80, 28.3718, 1541.30, 51.30, 49.4, 8.38, 7.9, 3E
2009/04/15, 00:03:22, , , 27.18, 27.00, 1007.4, 9.5862380, -122.3258600, 290.50, 13.34, 288.20, 1007.05, 479.40, 0.0, 196.35, 68.22, 65.9, 80, 6.2, 57.43280, 34.21330, 30.2299, 34.2133, 57.4328, 80.80, 28.3712, 1541.30, 53.80, 61.0, 8.27, 7.4, 3E
2009/04/15, 00:04:22, , , 27.23, 27.00, 1007.4, 9.5873130, -122.3291680, 281.30, 12.64, 288.20, 1007.06, 482.20, 0.0, 196.35, 69.05, 67.1, 79, 7.1, 57.42620, 34.21310, 30.2239, 34.2131, 57.4262, 81.20, 28.3722, 1541.30, 56.20, 53.7, 8.03, 7.6, 3E
2009/04/15, 00:05:22, , , 27.20, 27.00, 1007.5, 9.5884700, -122.3325850, 288.80, 12.02, 287.80, 1007.25, 254.70, 0.0, 196.35, 68.52, 66.1, 74, 7.7, 57.41990, 34.21400, 30.2166, 34.2140, 57.4199, 81.20, 28.3724, 1541.30, 52.90, 43.5, 8.00, 7.6, 3E
2009/04/15, 00:06:23, , , 27.18, 27.00, 1007.5, 9.5895750, -122.3359270, 284.90, 12.73, 287.50, 1007.17, 444.80, 0.0, 196.35, 68.91, 66.1, 74, 7.2, 57.42040, 34.21440, 30.2166, 34.2144, 57.4204, 81.50, 28.3718, 1541.30, 49.10, 47.8, 8.86, 8.0, 3E
2009/04/15, 00:07:22, , , 27.16, 27.00, 1007.7, 9.5906850, -122.3392670, 289.70, 11.90, 286.80, 1007.01, 370.30, 0.0, 196.35, 68.81, 66.4, 77, 7.1, 57.42020, 34.21430, 30.2165, 34.2143, 57.4202, 81.70, 28.3712, 1541.30, 51.90, 51.1, 8.16, 8.2, 3E
2009/04/15, 00:08:23, , , 27.16, 27.00, 1007.6, 9.5917950, -122.3425950, 289.20, 12.19, 286.50, 1007.02, 255.70, 0.0, 196.35, 69.03, 66.5, 85, 7.4, 57.42070, 34.21410, 30.2173, 34.2141, 57.4207, 81.20, 28.3696, 1541.30, 52.80, 52.1, 8.87, 8.7, 3E
2009/04/15, 00:09:22, , , 27.18, 27.00, 1007.2, 9.5928830, -122.3458630, 283.80, 11.99, 288.00, 1006.94, 340.20, 0.0, 196.35, 69.45, 67.2, 76, 6.9, 57.41270, 34.21430, 30.2094, 34.2143, 57.4127, 81.50, 28.3667, 1541.29, 53.90, 52.4, 9.31, 8.7, 3E
2009/04/15, 00:10:22, , , 27.14, 27.00, 1007.3, 9.5939780, -122.3491620, 287.10, 12.77, 287.00, 1006.89, 189.20, 0.0, 196.35, 69.21, 66.6, 81, 6.8, 57.41080, 34.21480, 30.2068, 34.2148, 57.4108, 81.70, 28.3653, 1541.29, 54.60, 51.3, 8.63, 8.2, 3E
2009/04/15, 00:11:22, , , 27.07, 26.90, 1007.4, 9.5950420, -122.3525030, 288.20, 12.93, 288.20, 1007.12, 224.50, 0.0, 196.35, 68.61, 66.4, 75, 7.7, 57.41420, 34.21520, 30.2095, 34.2152, 57.4142, 82.40, 28.3647, 1541.29, 56.00, 49.9, 8.37, 8.6, 3E
2009/04/15, 00:12:23, , , 27.19, 27.00, 1007.4, 9.5961950, -122.3559030, 289.40, 13.08, 287.00, 1006.99, 441.30, 0.0, 196.35, 69.34, 66.7, 76, 7.6, 57.40670, 34.21560, 30.2018, 34.2156, 57.4067, 82.40, 28.3638, 1541.29, 55.30, 47.7, 8.26, 8.2, 3E
2009/04/15, 00:13:22, , , 27.13, 27.00, 1007.5, 9.5973000, -122.3592100, 286.70, 12.31, 287.70, 1007.20, 436.00, 0.0, 196.35, 68.62, 66.1, 72, 7.0, 57.41110, 34.21650, 30.2047, 34.2165, 57.4111, 82.70, 28.3643, 1541.29, 48.70, 47.9, 8.09, 6.8, 3E
2009/04/15, 00:14:22, , , 27.36, 27.00, 1007.3, 9.5983980, -122.3625880, 289.20, 11.66, 287.00, 1006.82, 431.00, 0.0, 196.35, 71.78, 70.1, 81, 7.2, 57.41490, 34.21650, 30.2083, 34.2165, 57.4149, 82.70, 28.3639, 1541.29, 49.10, 50.1, 8.74, 8.6, 3E
2009/04/15, 00:15:22, , , 27.19, 27.00, 1007.3, 9.5994930, -122.3659480, 286.10, 12.72, 287.50, 1006.96, 435.10, 0.0, 196.35, 70.79, 68.8, 70, 8.7, 57.40510, 34.21710, 30.1982, 34.2171, 57.4051, 82.70, 28.3640, 1541.29, 50.10, 37.6, 9.07, 8.8, 3E
2009/04/15, 00:16:22, , , 27.18, 27.00, 1007.6, 9.6006320, -122.3693250, 290.70, 11.49, 287.90, 1006.72, 441.10, 0.0, 196.35, 70.26, 67.2, 80, 8.6, 57.40950, 34.21720, 30.2021, 34.2172, 57.4095, 83.00, 28.3629, 1541.29, 46.90, 44.2, 8.52, 8.9, 3E
2009/04/15, 00:17:22, , , 27.16, 27.00, 1007.5, 9.6017070, -122.3726380, 286.80, 12.45, 286.90, 1007.07, 438.00, 0.0, 196.35, 70.36, 68.0, 77, 8.3, 57.41080, 34.21720, 30.2035, 34.2172, 57.4108, 82.70, 28.3610, 1541.28, 45.80, 42.7, 8.78, 8.5, 3E
2009/04/15, 00:18:22, , , 27.17, 27.00, 1007.5, 9.6027820, -122.3759130, 291.80, 12.88, 287.00, 1006.84, 439.10, 0.0, 196.35, 69.80, 66.9, 79, 8.4, 57.41470, 34.21790, 30.2061, 34.2179, 57.4147, 83.20, 28.3603, 1541.28, 45.30, 43.8, 9.90, 9.7, 3E
2009/04/15, 00:19:23, , , 27.11, 26.90, 1007.5, 9.6038850, -122.3793280, 293.80, 13.27, 287.20, 1006.98, 427.40, 0.0, 196.35, 70.00, 66.9, 82, 7.8, 57.41690, 34.21780, 30.2084, 34.2178, 57.4169, 83.20, 28.3599, 1541.28, 51.60, 49.0, 9.44, 9.2, 3E
2009/04/15, 00:20:22, , , 27.15, 26.90, 1007.4, 9.6049380, -122.3826480, 286.70, 12.33, 286.80, 1007.04, 417.50, 0.0, 196.35, 69.12, 66.9, 74, 8.2, 57.41060, 34.21800, 30.2020, 34.2180, 57.4106, 83.20, 28.3598, 1541.28, 51.60, 39.6, 8.85, 8.4, 3E
2009/04/15, 00:21:22, , , 27.15, 27.00, 1007.3, 9.6060330, -122.3860220, 286.50, 12.46, 286.80, 1006.95, 420.30, 0.0, 196.35, 68.37, 65.5, 76, 7.4, 57.41000, 34.21900, 30.2002, 34.2190, 57.4100, 83.20, 28.3592, 1541.28, 48.60, 47.8, 8.84, 7.9, 3E
2009/04/15, 00:22:22, , , 27.17, 27.00, 1007.4, 9.6071320, -122.3894320, 286.90, 12.06, 287.60, 1006.97, 412.10, 0.0, 196.35, 69.55, 67.2, 82, 8.0, 57.40150, 34.21860, 30.1926, 34.2186, 57.4015, 83.60, 28.3610, 1541.28, 51.70, 50.1, 8.21, 8.1, 3E
2009/04/15, 00:23:22, , , 27.12, 27.00, 1007.5, 9.6081730, -122.3927030, 289.60, 12.41, 286.30, 1007.05, 399.70, 0.0, 196.35, 68.59, 65.8, 82, 7.0, 57.39820, 34.21860, 30.1895, 34.2186, 57.3982, 83.60, 28.3610, 1541.28, 49.90, 50.4, 9.03, 8.4, 3E
2009/04/15, 00:24:22, , , 27.16, 26.90, 1007.6, 9.6092250, -122.3960420, 284.20, 12.64, 286.20, 1007.18, 391.10, 0.0, 196.35, 69.57, 66.6, 81, 6.9, 57.40510, 34.21920, 30.1951, 34.2192, 57.4051, 83.60, 28.3619, 1541.29, 53.20, 49.3, 9.04, 8.6, 3E
2009/04/15, 00:25:22, , , 27.18, 26.90, 1007.5, 9.6102930, -122.3993750, 280.40, 12.40, 287.10, 1007.12, 386.20, 0.0, 196.35, 69.17, 66.5, 74, 7.9, 57.40640, 34.21880, 30.1971, 34.2188, 57.4064, 84.20, 28.3622, 1541.29, 52.40, 43.8, 8.68, 8.5, 3E
2009/04/15, 00:26:22, , , 27.22, 27.00, 1007.4, 9.6114020, -122.4027080, 291.10, 11.88, 287.10, 1007.00, 380.60, 0.0, 196.35, 70.06, 67.7, 76, 6.8, 57.40480, 34.21940, 30.1946, 34.2194, 57.4048, 84.20, 28.3622, 1541.29, 49.20, 48.4, 9.62, 8.1, 3E
2009/04/15, 00:27:23, , , 27.21, 27.00, 1007.4, 9.6124830, -122.4060720, 286.80, 12.39, 287.20, 1007.25, 375.80, 0.0, 196.35, 68.93, 66.2, 75, 6.6, 57.40950, 34.21950, 30.1989, 34.2195, 57.4095, 84.20, 28.3644, 1541.29, 55.60, 53.7, 8.50, 7.5, 3E
2009/04/15, 00:28:22, , , 27.30, 27.00, 1007.3, 9.6135300, -122.4094430, 283.20, 12.85, 286.10, 1007.15, 322.20, 0.0, 196.35, 70.12, 67.8, 85, 8.1, 57.40530, 34.21940, 30.1951, 34.2194, 57.4053, 84.20, 28.3657, 1541.29, 52.00, 51.5, 8.57, 8.8, 3E
2009/04/15, 00:29:22, , , 27.25, 27.00, 1007.4, 9.6146120, -122.4128120, 292.40, 12.18, 287.30, 1007.16, 328.70, 0.0, 196.35, 71.69, 69.4, 81, 7.5, 57.39190, 34.21900, 30.1828, 34.2190, 57.3919, 84.50, 28.3677, 1541.30, 53.70, 52.6, 8.75, 8.3, 3E
2009/04/15, 00:30:22, , , 27.14, 27.00, 1007.5, 9.6156930, -122.4161100, 286.70, 12.97, 287.60, 1007.16, 213.50, 0.0, 196.35, 70.69, 68.7, 78, 7.1, 57.40120, 34.22040, 30.1897, 34.2204, 57.4012, 83.90, 28.3692, 1541.30, 54.40, 49.7, 8.38, 8.2, 3E
2009/04/15, 00:31:22, , , 27.12, 26.90, 1007.5, 9.6167580, -122.4194850, 286.10, 12.24, 286.80, 1007.17, 357.00, 0.0, 196.35, 70.40, 67.6, 82, 6.9, 57.40090, 34.22010, 30.1899, 34.2201, 57.4009, 84.20, 28.3684, 1541.30, 51.90, 52.3, 8.23, 8.1, 3E
2009/04/15, 00:32:22, , , 27.18, 26.90, 1007.6, 9.6178480, -122.4228350, 289.10, 12.83, 286.30, 1007.27, 364.70, 0.0, 196.35, 71.85, 70.3, 73, 7.3, 57.40180, 34.22130, 30.1891, 34.2213, 57.4018, 83.90, 28.3658, 1541.30, 51.60, 46.1, 8.71, 8.0, 3E
2009/04/15, 00:33:22, , , 27.17, 26.90, 1007.6, 9.6189270, -122.4262120, 293.70, 12.38, 287.00, 1007.21, 361.50, 0.0, 196.35, 71.36, 68.9, 81, 7.5, 57.40620, 34.22180, 30.1926, 34.2218, 57.4062, 83.90, 28.3614, 1541.29, 48.10, 46.0, 9.36, 9.5, 3E
2009/04/15, 00:34:23, , , 27.29, 27.00, 1007.6, 9.6199520, -122.4295250, 285.00, 13.01, 286.10, 1007.29, 339.60, 0.0, 196.35, 72.84, 70.6, 79, 8.6, 57.39710, 34.22220, 30.1833, 34.2222, 57.3971, 83.20, 28.3605, 1541.29, 52.90, 45.0, 9.33, 8.8, 3E
2009/04/15, 00:35:22, , , 27.07, 27.00, 1007.5, 9.6209970, -122.4328370, 284.10, 12.43, 286.70, 1007.13, 213.10, 0.0, 196.35, 69.86, 67.1, 76, 7.9, 57.39320, 34.22310, 30.1784, 34.2231, 57.3932, 84.20, 28.3596, 1541.29, 48.20, 47.3, 8.76, 7.6, 3E
2009/04/15, 00:36:23, , , 27.07, 26.90, 1007.5, 9.6220770, -122.4361420, 289.60, 12.73, 287.20, 1007.02, 213.10, 0.0, 196.35, 70.60, 68.2, 70, 7.9, 57.39490, 34.22310, 30.1800, 34.2231, 57.3949, 83.20, 28.3602, 1541.29, 45.90, 41.4, 8.97, 8.1, 3E
2009/04/15, 00:37:23, , , 27.06, 26.90, 1007.5, 9.6231120, -122.4394850, 281.80, 12.09, 287.80, 1007.23, 304.20, 0.0, 196.35, 70.68, 68.4, 72, 8.6, 57.39650, 34.22360, 30.1808, 34.2236, 57.3965, 83.60, 28.3607, 1541.29, 45.80, 42.7, 8.85, 8.2, 3E
2009/04/15, 00:38:22, , , 27.07, 26.90, 1007.5, 9.6241950, -122.4427370, 286.00, 11.87, 287.80, 1007.00, 333.70, 0.0, 196.35, 69.89, 66.9, 78, 7.2, 57.39430, 34.22440, 30.1775, 34.2244, 57.3943, 83.90, 28.3593, 1541.29, 49.00, 50.0, 8.87, 7.8, 3E
2009/04/15, 00:39:22, , , 27.12, 26.90, 1007.5, 9.6253120, -122.4460970, 286.00, 12.56, 286.10, 1007.11, 334.90, 0.0, 196.35, 70.71, 68.0, 77, 7.1, 57.39300, 34.22540, 30.1748, 34.2254, 57.3930, 83.20, 28.3568, 1541.28, 49.70, 50.0, 8.11, 7.6, 3E
2009/04/15, 00:40:23, , , 27.13, 26.90, 1007.5, 9.6263150, -122.4493870, 285.70, 12.12, 286.90, 1007.08, 328.80, 0.0, 196.35, 69.61, 66.9, 79, 8.0, 57.39760, 34.22610, 30.1783, 34.2261, 57.3976, 83.60, 28.3540, 1541.28, 47.90, 45.2, 8.00, 8.3, 3E
2009/04/15, 00:41:22, , , 27.21, 27.00, 1007.5, 9.6274050, -122.4526870, 291.50, 12.18, 286.30, 1007.20, 319.60, 0.0, 196.35, 70.57, 67.9, 74, 8.8, 57.39760, 34.22810, 30.1755, 34.2281, 57.3976, 83.20, 28.3515, 1541.27, 44.00, 39.7, 9.30, 9.2, 3E
2009/04/15, 00:42:22, , , 27.15, 27.00, 1007.5, 9.6284470, -122.4560650, 290.80, 12.68, 287.10, 1007.07, 309.90, 0.0, 196.35, 71.34, 68.9, 75, 7.4, 57.39600, 34.22910, 30.1724, 34.2291, 57.3960, 83.00, 28.3487, 1541.27, 46.60, 49.2, 8.88, 7.6, 3E
2009/04/15, 00:43:22, , , 27.15, 26.90, 1007.5, 9.6294720, -122.4593120, 287.80, 12.26, 286.80, 1006.99, 311.40, 0.0, 196.35, 71.72, 68.9, 75, 8.1, 57.39960, 34.23030, 30.1741, 34.2303, 57.3996, 82.70, 28.3467, 1541.26, 44.90, 41.8, 8.84, 8.4, 3E
2009/04/15, 00:44:22, , , 27.14, 26.90, 1007.5, 9.6305420, -122.4626400, 289.40, 11.51, 286.80, 1007.26, 302.50, 0.0, 196.35, 71.52, 69.3, 80, 8.0, 57.40070, 34.23130, 30.1738, 34.2313, 57.4007, 83.20, 28.3441, 1541.26, 43.60, 44.4, 8.64, 8.6, 3E
2009/04/15, 00:45:22, , , 27.11, 26.90, 1007.6, 9.6315770, -122.4659680, 282.90, 11.63, 285.30, 1007.11, 296.40, 0.0, 196.35, 71.14, 68.8, 84, 7.9, 57.40370, 34.23350, 30.1736, 34.2335, 57.4037, 82.70, 28.3427, 1541.26, 48.30, 49.9, 9.05, 9.2, 3E
2009/04/15, 00:46:22, , , 27.18, 26.90, 1007.6, 9.6326630, -122.4693330, 292.30, 12.15, 286.60, 1007.03, 293.70, 0.0, 196.35, 72.53, 70.8, 80, 9.3, 57.40290, 34.23370, 30.1724, 34.2337, 57.4029, 82.40, 28.3406, 1541.25, 53.40, 42.5, 8.81, 9.8, 3E
2009/04/15, 00:47:22, , , 27.11, 26.90, 1007.4, 9.6337170, -122.4726220, 286.80, 12.28, 286.30, 1007.02, 293.90, 0.0, 196.35, 72.08, 69.8, 76, 7.5, 57.40510, 34.23550, 30.1720, 34.2355, 57.4051, 82.70, 28.3370, 1541.25, 46.60, 49.4, 9.71, 8.8, 3E
2009/04/15, 00:48:23, , , 27.16, 26.90, 1007.4, 9.6347670, -122.4759130, 281.30, 12.57, 287.80, 1006.97, 286.40, 0.0, 196.35, 72.14, 70.0, 74, 8.9, 57.40510, 34.23670, 30.1703, 34.2367, 57.4051, 82.00, 28.3337, 1541.24, 46.70, 40.0, 8.66, 7.2, 3E
2009/04/15, 00:49:23, , , 27.08, 26.90, 1007.4, 9.6358420, -122.4791930, 287.40, 11.85, 286.80, 1007.17, 278.50, 0.0, 196.35, 70.56, 68.1, 75, 8.4, 57.40920, 34.23720, 30.1736, 34.2372, 57.4092, 81.70, 28.3286, 1541.23, 46.80, 44.1, 8.82, 9.4, 3E
2009/04/15, 00:50:23, , , 27.09, 26.90, 1007.4, 9.6369020, -122.4824630, 281.20, 12.84, 287.60, 1007.16, 275.70, 0.0, 196.35, 70.95, 68.1, 81, 8.5, 57.41170, 34.23810, 30.1747, 34.2381, 57.4117, 81.50, 28.3241, 1541.22, 41.50, 44.6, 9.36, 8.7, 3E
2009/04/15, 00:51:22, , , 27.13, 26.90, 1007.3, 9.6380020, -122.4858000, 282.90, 12.26, 286.80, 1007.28, 272.60, 0.0, 196.35, 71.87, 69.1, 85, 8.0, 57.40890, 34.23970, 30.1698, 34.2397, 57.4089, 81.70, 28.3216, 1541.22, 46.40, 50.4, 9.81, 9.4, 3E
2009/04/15, 00:52:22, , , 27.07, 26.90, 1007.4, 9.6390350, -122.4891570, 288.70, 12.99, 287.20, 1007.27, 268.30, 0.0, 196.35, 70.63, 68.5, 87, 7.0, 57.40730, 34.23990, 30.1679, 34.2399, 57.4073, 81.20, 28.3198, 1541.22, 45.20, 51.4, 10.39, 9.5, 3E
2009/04/15, 00:53:22, , , 27.25, 26.90, 1007.6, 9.6400330, -122.4924530, 292.50, 11.99, 286.10, 1007.06, 253.80, 0.0, 196.35, 72.25, 71.0, 80, 7.4, 57.40070, 34.23990, 30.1616, 34.2399, 57.4007, 81.70, 28.3186, 1541.21, 50.20, 44.9, 9.87, 8.9, 3E
2009/04/15, 00:54:22, , , 27.26, 26.90, 1007.5, 9.6410870, -122.4957650, 286.40, 12.95, 287.50, 1007.04, 145.30, 0.0, 196.35, 73.25, 71.4, 77, 8.9, 57.40290, 34.24140, 30.1615, 34.2414, 57.4029, 81.20, 28.3176, 1541.21, 50.70, 39.6, 8.63, 8.7, 3E
2009/04/15, 00:55:22, , , 27.08, 26.90, 1007.6, 9.6421400, -122.4990400, 289.80, 12.38, 286.40, 1007.29, 257.20, 0.0, 196.35, 72.36, 70.3, 82, 8.4, 57.40370, 34.24190, 30.1616, 34.2419, 57.4037, 81.20, 28.3152, 1541.21, 45.80, 45.3, 9.18, 9.3, 3E
2009/04/15, 00:56:22, , , 27.16, 26.90, 1007.5, 9.6431370, -122.5022950, 283.00, 12.82, 288.20, 1007.18, 255.90, 0.0, 196.35, 72.97, 70.7, 77, 7.9, 57.40670, 34.24230, 30.1640, 34.2423, 57.4067, 80.80, 28.3125, 1541.20, 49.50, 46.4, 9.74, 8.4, 3E
2009/04/15, 00:57:22, , , 27.09, 26.90, 1007.6, 9.6442070, -122.5056180, 282.80, 12.51, 287.60, 1007.32, 251.80, 0.0, 196.35, 71.82, 69.4, 81, 8.1, 57.40780, 34.24300, 30.1640, 34.2430, 57.4078, 80.80, 28.3101, 1541.20, 51.70, 49.8, 9.23, 8.6, 3E
2009/04/15, 00:58:22, , , 27.08, 26.90, 1007.6, 9.6452450, -122.5088220, 288.30, 11.70, 286.30, 1007.19, 257.10, 0.0, 196.35, 71.71, 69.2, 79, 8.1, 57.40810, 34.24280, 30.1646, 34.2428, 57.4081, 80.80, 28.3086, 1541.19, 44.60, 41.0, 9.38, 8.9, 3E
2009/04/15, 00:59:23, , , 27.04, 26.90, 1007.5, 9.6463220, -122.5121750, 286.80, 12.79, 286.60, 1007.47, 263.40, 0.0, 196.35, 70.81, 68.0, 86, 7.3, 57.39460, 34.24380, 30.1503, 34.2438, 57.3946, 80.50, 28.3065, 1541.19, 48.10, 52.2, 9.35, 9.0, 3E
2009/04/15, 01:00:23, , , 27.14, 26.90, 1007.7, 9.6473680, -122.5154780, 287.20, 12.98, 285.60, 1007.30, 262.60, 0.0, 196.35, 71.24, 68.0, 87, 7.2, 57.39770, 34.24530, 30.1511, 34.2453, 57.3977, 80.50, 28.3066, 1541.19, 46.80, 50.0, 9.64, 10.0, 3E
2009/04/15, 01:01:23, , , 27.21, 26.90, 1007.6, 9.6484050, -122.5187670, 282.50, 11.78, 286.80, 1007.30, 256.30, 0.0, 196.35, 72.71, 71.3, 79, 8.8, 57.40290, 34.24530, 30.1560, 34.2453, 57.4029, 80.50, 28.3050, 1541.19, 55.10, 44.6, 8.85, 8.2, 3E
2009/04/15, 01:02:22, , , 27.18, 27.00, 1007.5, 9.6494670, -122.5220600, 288.70, 12.61, 287.70, 1007.17, 244.30, 0.0, 196.35, 71.71, 69.0, 82, 8.7, 57.40840, 34.24630, 30.1599, 34.2463, 57.4084, 80.80, 28.3036, 1541.19, 51.20, 48.9, 9.23, 9.5, 3E
2009/04/15, 01:03:22, , , 27.17, 26.90, 1007.5, 9.6504880, -122.5253230, 290.70, 13.37, 285.70, 1007.04, 231.30, 0.0, 196.35, 73.08, 71.0, 89, 9.6, 57.40260, 34.24750, 30.1527, 34.2475, 57.4026, 80.50, 28.3042, 1541.19, 47.40, 42.6, 10.58, 11.2, 3E
2009/04/15, 01:04:22, , , 27.09, 26.90, 1007.6, 9.6515480, -122.5286500, 293.60, 12.83, 286.00, 1007.25, 200.50, 0.0, 196.35, 70.87, 68.2, 81, 8.0, 57.40700, 34.24850, 30.1555, 34.2485, 57.4070, 80.50, 28.3045, 1541.19, 46.30, 46.9, 9.61, 9.1, 3E
2009/04/15, 01:05:22, , , 27.14, 26.90, 1007.6, 9.6525620, -122.5319680, 289.00, 13.20, 288.00, 1007.31, 215.50, 0.0, 196.35, 71.70, 69.6, 87, 8.4, 57.40640, 34.24890, 30.1544, 34.2489, 57.4064, 80.80, 28.3049, 1541.19, 50.00, 50.4, 9.47, 9.5, 3E
2009/04/15, 01:06:22, , , 27.15, 26.90, 1007.6, 9.6536050, -122.5352920, 282.50, 12.92, 286.80, 1007.20, 210.30, 0.0, 196.35, 71.11, 69.1, 78, 8.7, 57.41030, 34.25010, 30.1562, 34.2501, 57.4103, 80.80, 28.3051, 1541.19, 47.00, 43.9, 9.66, 9.3, 3E
2009/04/15, 01:07:22, , , 27.05, 26.90, 1007.6, 9.6546770, -122.5386670, 290.60, 12.52, 285.60, 1007.58, 209.10, 0.0, 196.35, 69.73, 66.1, 78, 8.7, 57.40480, 34.25110, 30.1497, 34.2511, 57.4048, 81.20, 28.3054, 1541.20, 44.10, 41.9, 9.78, 9.3, 3E
2009/04/15, 01:08:22, , , 27.10, 26.90, 1007.4, 9.6556780, -122.5420080, 289.80, 12.77, 286.20, 1006.97, 206.60, 0.0, 196.35, 69.60, 66.6, 76, 8.6, 57.40670, 34.25180, 30.1505, 34.2518, 57.4067, 81.20, 28.3048, 1541.20, 42.90, 40.6, 9.72, 8.9, 3E
2009/04/15, 01:09:22, , , 27.06, 26.90, 1007.5, 9.6567350, -122.5453320, 289.50, 12.89, 285.80, 1007.44, 161.00, 0.0, 196.35, 69.14, 66.0, 79, 8.1, 57.40560, 34.25250, 30.1485, 34.2525, 57.4056, 81.20, 28.3057, 1541.20, 48.90, 48.9, 9.97, 9.1, 3E
2009/04/15, 01:10:22, , , 27.07, 26.90, 1007.6, 9.6577450, -122.5486520, 288.70, 12.03, 285.70, 1007.41, 148.50, 0.0, 196.35, 69.60, 66.0, 85, 7.9, 57.40260, 34.25340, 30.1443, 34.2534, 57.4026, 81.70, 28.3073, 1541.20, 49.50, 50.9, 9.56, 9.6, 3E
2009/04/15, 01:11:23, , , 27.21, 26.90, 1007.7, 9.6587530, -122.5519900, 285.90, 12.06, 287.00, 1007.37, 188.20, 0.0, 196.35, 72.03, 70.7, 78, 8.5, 57.40510, 34.25320, 30.1470, 34.2532, 57.4051, 81.70, 28.3083, 1541.20, 45.30, 41.7, 10.01, 9.6, 3E
2009/04/15, 01:12:23, , , 27.04, 26.90, 1007.6, 9.6597650, -122.5553350, 286.20, 13.08, 287.90, 1007.13, 183.80, 0.0, 196.35, 68.95, 65.6, 84, 8.4, 57.40210, 34.25410, 30.1428, 34.2541, 57.4021, 81.50, 28.3104, 1541.21, 50.00, 50.4, 10.33, 10.3, 3E
2009/04/15, 01:13:22, , , 27.12, 26.90, 1007.8, 9.6607950, -122.5586020, 283.40, 12.98, 287.60, 1007.29, 178.70, 0.0, 196.35, 70.67, 68.4, 84, 7.7, 57.40040, 34.25460, 30.1405, 34.2546, 57.4004, 81.50, 28.3111, 1541.21, 50.40, 51.2, 9.71, 9.1, 3E
2009/04/15, 01:14:22, , , 27.12, 26.90, 1007.8, 9.6618500, -122.5619300, 287.20, 12.15, 288.00, 1007.23, 175.60, 0.0, 196.35, 70.75, 68.8, 81, 8.1, 57.39680, 34.25540, 30.1360, 34.2554, 57.3968, 81.70, 28.3104, 1541.21, 50.10, 46.7, 9.72, 9.4, 3E
2009/04/15, 01:15:22, , , 27.06, 26.90, 1007.7, 9.6628670, -122.5653670, 287.40, 12.09, 286.20, 1007.22, 170.60, 0.0, 196.35, 69.03, 66.4, 79, 8.0, 57.39410, 34.25520, 30.1337, 34.2552, 57.3941, 81.70, 28.3123, 1541.22, 48.10, 50.0, 9.84, 8.6, 3E
2009/04/15, 01:16:22, , , 27.21, 26.90, 1007.6, 9.6638250, -122.5686730, 287.40, 11.75, 286.40, 1007.57, 166.90, 0.0, 196.35, 71.24, 68.5, 83, 8.1, 57.38830, 34.25530, 30.1280, 34.2553, 57.3883, 82.00, 28.3141, 1541.22, 49.20, 42.6, 9.51, 9.8, 3E
2009/04/15, 01:17:22, , , 27.14, 26.90, 1007.6, 9.6648070, -122.5720200, 284.90, 12.81, 287.30, 1007.32, 163.60, 0.0, 196.35, 71.19, 68.5, 82, 8.9, 57.38830, 34.25580, 30.1274, 34.2558, 57.3883, 82.40, 28.3167, 1541.23, 49.40, 46.3, 9.48, 9.9, 3E
2009/04/15, 01:18:22, , , 27.09, 26.90, 1007.8, 9.6658180, -122.5753750, 287.40, 13.13, 287.50, 1007.50, 165.60, 0.0, 196.35, 71.62, 69.6, 81, 8.3, 57.38860, 34.25510, 30.1286, 34.2551, 57.3886, 82.40, 28.3196, 1541.23, 48.60, 47.1, 9.99, 9.2, 3E
2009/04/15, 01:19:22, , , 27.07, 26.90, 1007.7, 9.6668200, -122.5786930, 293.50, 11.95, 287.40, 1007.57, 155.90, 0.0, 196.35, 71.19, 68.6, 84, 8.6, 57.38450, 34.25560, 30.1239, 34.2556, 57.3845, 82.40, 28.3209, 1541.23, 48.40, 47.5, 9.74, 9.8, 3E
2009/04/15, 01:20:22, , , 27.10, 26.90, 1007.5, 9.6678130, -122.5820480, 289.60, 12.63, 285.20, 1007.55, 151.60, 0.0, 196.35, 71.39, 69.2, 82, 8.2, 57.38370, 34.25650, 30.1219, 34.2565, 57.3837, 82.70, 28.3226, 1541.24, 47.90, 47.3, 9.41, 9.0, 3E
2009/04/15, 01:21:22, , , 27.10, 26.90, 1007.6, 9.6687930, -122.5854380, 287.20, 12.16, 286.00, 1007.53, 148.80, 0.0, 196.35, 70.89, 67.6, 84, 7.5, 57.37870, 34.25710, 30.1163, 34.2571, 57.3787, 82.00, 28.3232, 1541.24, 46.30, 47.7, 10.46, 9.6, 3E
2009/04/15, 01:22:22, , , 27.15, 26.90, 1007.8, 9.6697580, -122.5888080, 286.20, 12.93, 286.10, 1007.45, 146.00, 0.0, 196.35, 71.93, 69.3, 87, 7.4, 57.37520, 34.25690, 30.1133, 34.2569, 57.3752, 82.00, 28.3254, 1541.25, 48.70, 51.9, 10.00, 9.4, 3E
2009/04/15, 01:23:22, , , 27.16, 26.90, 1007.8, 9.6707400, -122.5921050, 286.30, 11.67, 285.40, 1007.46, 142.00, 0.0, 196.35, 72.20, 69.6, 83, 9.0, 57.36890, 34.25710, 30.1069, 34.2571, 57.3689, 82.00, 28.3262, 1541.25, 50.60, 43.7, 9.38, 9.8, 3E
2009/04/15, 01:24:23, , , 27.01, 26.90, 1007.8, 9.6717530, -122.5954770, 282.40, 11.87, 286.80, 1007.63, 137.80, 0.0, 196.35, 69.72, 66.8, 89, 7.9, 57.36200, 34.25820, 30.0989, 34.2582, 57.3620, 81.70, 28.3265, 1541.25, 47.80, 53.5, 9.40, 9.5, 3E
2009/04/15, 01:25:23, , , 27.14, 26.90, 1007.8, 9.6727580, -122.5988020, 287.40, 12.34, 286.40, 1007.36, 136.70, 0.0, 196.35, 71.97, 69.9, 84, 7.4, 57.36230, 34.25850, 30.0987, 34.2585, 57.3623, 82.40, 28.3267, 1541.25, 50.40, 50.6, 10.23, 9.0, 3E
2009/04/15, 01:26:23, , , 27.19, 26.90, 1007.8, 9.6737630, -122.6021470, 290.80, 12.28, 285.70, 1007.53, 128.70, 0.0, 196.35, 72.18, 69.9, 81, 8.8, 57.36040, 34.25860, 30.0967, 34.2586, 57.3604, 83.00, 28.3267, 1541.25, 53.90, 46.9, 9.74, 9.7, 3E
2009/04/15, 01:27:23, , , 27.19, 27.00, 1007.8, 9.6747730, -122.6055130, 296.30, 12.51, 286.20, 1007.52, 128.00, 0.0, 196.35, 72.28, 69.8, 81, 8.8, 57.35680, 34.25950, 30.0920, 34.2595, 57.3568, 82.70, 28.3266, 1541.25, 47.70, 46.9, 10.46, 10.5, 3E
2009/04/15, 01:28:23, , , 27.05, 26.90, 1007.6, 9.6757800, -122.6088680, 296.50, 11.95, 287.20, 1007.34, 124.50, 0.0, 196.35, 70.92, 68.3, 78, 8.7, 57.35490, 34.26020, 30.0892, 34.2602, 57.3549, 83.00, 28.3272, 1541.25, 48.70, 45.8, 10.51, 10.0, 3E
2009/04/15, 01:29:22, , , 27.05, 26.90, 1007.7, 9.6768230, -122.6121880, 287.20, 12.63, 286.80, 1007.41, 118.70, 0.0, 196.35, 71.56, 68.4, 80, 8.8, 57.35320, 34.25940, 30.0888, 34.2594, 57.3532, 82.70, 28.3273, 1541.25, 48.20, 46.6, 10.11, 9.4, 3E
2009/04/15, 01:30:23, , , 26.99, 26.90, 1007.8, 9.6778370, -122.6155720, 284.40, 11.99, 285.80, 1007.41, 113.90, 0.0, 196.35, 69.50, 66.2, 86, 8.8, 57.34170, 34.25980, 30.0772, 34.2598, 57.3417, 83.00, 28.3272, 1541.25, 47.00, 49.5, 10.61, 9.6, 3E
2009/04/15, 01:31:23, , , 26.98, 26.80, 1007.8, 9.6788630, -122.6190380, 288.50, 12.93, 286.20, 1007.66, 109.00, 0.0, 196.35, 68.36, 65.1, 85, 7.5, 57.34030, 34.26010, 30.0755, 34.2601, 57.3403, 83.00, 28.3248, 1541.25, 49.30, 54.9, 10.68, 9.7, 3E
2009/04/15, 01:32:22, , , 27.12, 26.90, 1007.8, 9.6798970, -122.6223900, 291.00, 12.90, 287.20, 1007.64, 102.50, 0.0, 196.35, 69.92, 67.3, 89, 8.4, 57.33870, 34.26030, 30.0737, 34.2603, 57.3387, 83.00, 28.3221, 1541.24, 53.00, 53.4, 9.83, 10.0, 3E
2009/04/15, 01:33:22, , , 27.18, 26.90, 1007.7, 9.6808780, -122.6257680, 284.10, 11.92, 286.70, 1007.42, 101.20, 0.0, 196.35, 71.82, 70.0, 91, 7.3, 57.33750, 34.26020, 30.0726, 34.2602, 57.3375, 82.70, 28.3195, 1541.24, 52.50, 56.8, 9.69, 9.2, 3E
2009/04/15, 01:34:22, , , 27.12, 26.90, 1007.8, 9.6818880, -122.6291200, 286.10, 13.09, 286.80, 1007.51, 102.00, 0.0, 196.35, 70.70, 67.4, 87, 7.9, 57.33680, 34.26090, 30.0710, 34.2609, 57.3368, 82.00, 28.3187, 1541.24, 51.10, 49.9, 9.52, 9.3, 3E